QPF
0.01 0.01 0.00 0.00 0.01 0.01 0.00 0.01 0.02 0.03 0.03 0.02 0.02 0.01 0.01 0.01 0.01 0.01 0.01 0.04 0.04 0.05 0.08 0.08 0.08 0.08 0.08 0.06 0.06 0.05 0.04 0.05 0.04 0.04 0.04 0.06 0.05 0.03 0.01 0.01 0.00 0.01 0.01
0.00 0.00 0.01 0.01 0.01 0.01 0.01 0.02 0.03 0.03 0.03 0.03 0.02 0.01 0.01 0.01 0.01 0.00 0.01 0.03 0.05 0.06 0.09 0.11 0.12 0.10 0.09 0.07 0.07 0.06 0.06 0.06 0.05 0.04 0.04 0.05 0.05 0.05 0.03 0.02 0.01 0.01 0.01
0.01 0.01 0.01 0.02 0.02 0.01 0.01 0.02 0.03 0.03 0.03 0.02 0.02 0.02 0.01 0.01 0.01 0.01 0.01 0.01 0.02 0.05 0.07 0.09 0.11 0.10 0.10 0.11 0.09 0.08 0.06 0.06 0.05 0.04 0.03 0.04 0.04 0.04 0.05 0.04 0.03 0.02 0.02
0.01 0.01 0.02 0.02 0.03 0.02 0.03 0.03 0.04 0.03 0.03 0.02 0.02 0.01 0.01 0.01 0.01 0.01 0.01 0.01 0.02 0.02 0.05 0.09 0.10 0.11 0.14 0.14 0.13 0.10 0.07 0.05 0.05 0.05 0.04 0.04 0.03 0.03 0.04 0.05 0.05 0.03 0.02
0.00 0.01 0.02 0.02 0.03 0.02 0.02 0.03 0.04 0.04 0.04 0.04 0.03 0.02 0.02 0.02 0.01 0.01 0.02 0.02 0.02 0.02 0.02 0.06 0.09 0.09 0.12 0.13 0.13 0.11 0.11 0.08 0.06 0.04 0.04 0.04 0.03 0.03 0.02 0.03 0.04 0.04 0.03
0.01 0.02 0.02 0.02 0.01 0.01 0.02 0.03 0.04 0.04 0.04 0.03 0.03 0.03 0.04 0.04 0.03 0.04 0.03 0.02 0.02 0.02 0.02 0.03 0.04 0.06 0.07 0.08 0.10 0.12 0.12 0.13 0.09 0.06 0.06 0.06 0.05 0.04 0.03 0.02 0.02 0.03 0.03
0.01 0.02 0.02 0.01 0.02 0.02 0.03 0.04 0.03 0.03 0.03 0.02 0.02 0.03 0.03 0.03 0.04 0.06 0.06 0.05 0.03 0.03 0.02 0.02 0.02 0.02 0.03 0.04 0.05 0.07 0.09 0.11 0.10 0.08 0.07 0.07 0.06 0.05 0.04 0.03 0.03 0.03 0.03
0.02 0.02 0.01 0.01 0.03 0.02 0.02 0.02 0.02 0.02 0.02 0.01 0.01 0.02 0.01 0.02 0.02 0.03 0.05 0.06 0.03 0.02 0.02 0.03 0.02 0.02 0.02 0.02 0.02 0.03 0.05 0.06 0.09 0.08 0.06 0.05 0.05 0.05 0.04 0.04 0.04 0.03 0.02
0.02 0.02 0.02 0.02 0.03 0.03 0.02 0.02 0.02 0.02 0.01 0.01 0.02 0.01 0.00 0.00 0.01 0.01 0.01 0.02 0.02 0.02 0.03 0.04 0.03 0.02 0.02 0.02 0.01 0.02 0.02 0.02 0.04 0.06 0.06 0.05 0.04 0.03 0.03 0.04 0.04 0.03 0.03
0.03 0.04 0.03 0.02 0.02 0.02 0.02 0.02 0.02 0.02 0.02 0.02 0.02 0.01 0.00 0.00 0.00 0.00 0.01 0.01 0.00 0.00 0.01 0.01 0.01 0.01 0.01 0.01 0.01 0.01 0.01 0.00 0.01 0.03 0.03 0.03 0.02 0.02 0.02 0.03 0.04 0.05 0.04
0.04 0.04 0.03 0.03 0.02 0.02 0.02 0.02 0.02 0.02 0.01 0.01 0.01 0.00 0.00 0.00 0.00 0.00 0.00 0.00 0.01 0.01 0.01 0.00 0.00 0.01 0.01 0.00 0.01 0.01 0.00 0.00 0.00 0.00 0.00 0.01 0.01 0.01 0.01 0.01 0.01 0.02 0.03
0.02 0.02 0.03 0.02 0.02 0.02 0.02 0.02 0.01 0.02 0.01 0.00 0.00 0.00 0.00 0.00 0.00 0.00 0.00 0.00 0.00 0.00 0.00 0.00 0.00 0.01 0.01 0.00 0.00 0.00 0.00 0.00 0.00 0.00 0.00 0.00 0.00 0.00 0.00 0.01 0.01 0.01 0.01
0.01 0.01 0.01 0.01 0.01 0.01 0.02 0.01 0.01 0.01 0.00 0.00 0.00 0.00 0.00 0.00 0.00 0.00 0.00 0.00 0.00 0.00 0.00 0.00 0.00 0.00 0.00 0.00 0.00 0.00 0.00 0.00 0.00 0.00 0.00 0.00 0.00 0.00 0.00 0.00 0.00 0.00 0.01
0.03 0.02 0.02 0.02 0.01 0.02 0.02 0.02 0.01 0.00 0.00 0.00 0.00 0.00 0.00 0.00 0.00 0.00 0.00 0.00 0.00 0.00 0.00 0.00 0.00 0.00 0.00 0.00 0.00 0.00 0.00 0.00 0.00 0.00 0.00 0.00 0.00 0.00 0.00 0.00 0.00 0.00 0.00
0.07 0.05 0.03 0.03 0.02 0.02 0.03 0.03 0.01 0.00 0.00 0.01 0.01 0.00 0.00 0.00 0.00 0.00 0.00 0.00 0.00 0.00 0.00 0.00 0.00 0.00 0.00 0.00 0.00 0.00 0.00 0.00 0.00 0.00 0.00 0.00 0.00 0.00 0.00 0.00 0.00 0.00 0.00
0.07 0.06 0.05 0.03 0.02 0.02 0.03 0.02 0.01 0.00 0.00 0.01 0.00 0.00 0.00 0.00 0.00 0.00 0.00 0.00 0.00 0.00 0.00 0.00 0.00 0.00 0.00 0.00 0.00 0.00 0.00 0.00 0.00 0.00 0.00 0.00 0.00 0.00 0.00 0.00 0.00 0.00 0.00
0.05 0.05 0.04 0.04 0.02 0.01 0.02 0.02 0.01 0.01 0.00 0.00 0.00 0.00 0.00 0.00 0.00 0.00 0.00 0.00 0.00 0.00 0.00 0.00 0.00 0.00 0.00 0.00 0.00 0.00 0.00 0.00 0.00 0.00 0.00 0.00 0.00 0.00 0.00 0.00 0.00 0.00 0.00
0.05 0.05 0.05 0.03 0.02 0.01 0.01 0.02 0.02 0.01 0.00 0.00 0.00 0.00 0.00 0.00 0.00 0.00 0.00 0.00 0.00 0.00 0.00 0.00 0.00 0.00 0.00 0.00 0.00 0.00 0.00 0.00 0.00 0.00 0.00 0.00 0.00 0.00 0.00 0.00 0.00 0.00 0.00
0.06 0.06 0.04 0.02 0.02 0.02 0.02 0.02 0.02 0.02 0.01 0.01 0.01 0.00 0.00 0.00 0.00 0.00 0.00 0.00 0.00 0.00 0.00 0.00 0.00 0.00 0.00 0.00 0.00 0.00 0.00 0.00 0.00 0.00 0.00 0.00 0.00 0.00 0.00 0.00 0.00 0.00 0.00
0.07 0.06 0.05 0.04 0.03 0.03 0.03 0.03 0.03 0.03 0.02 0.02 0.01 0.01 0.00 0.00 0.00 0.00 0.00 0.00 0.00 0.00 0.00 0.00 0.00 0.00 0.00 0.00 0.00 0.00 0.00 0.00 0.00 0.00 0.00 0.00 0.00 0.00 0.00 0.00 0.00 0.00 0.00
0.08 0.08 0.07 0.06 0.05 0.05 0.05 0.05 0.05 0.05 0.04 0.03 0.02 0.01 0.00 0.00 0.00 0.01 0.00 0.00 0.00 0.00 0.00 0.00 0.00 0.00 0.00 0.00 0.00 0.00 0.00 0.00 0.00 0.00 0.00 0.00 0.00 0.00 0.00 0.00 0.00 0.00 0.00
0.10 0.10 0.08 0.06 0.05 0.03 0.04 0.06 0.07 0.07 0.07 0.06 0.04 0.03 0.01 0.01 0.01 0.01 0.01 0.01 0.00 0.00 0.00 0.00 0.00 0.00 0.00 0.00 0.00 0.00 0.00 0.00 0.00 0.00 0.00 0.00 0.00 0.00 0.00 0.00 0.00 0.00 0.00
0.07 0.07 0.07 0.06 0.05 0.03 0.03 0.06 0.09 0.09 0.08 0.06 0.06 0.05 0.04 0.02 0.02 0.02 0.02 0.01 0.01 0.00 0.00 0.00 0.00 0.00 0.00 0.00 0.00 0.00 0.00 0.00 0.00 0.00 0.00 0.00 0.00 0.00 0.00 0.00 0.00 0.00 0.00
0.01 0.02 0.03 0.03 0.04 0.04 0.04 0.05 0.07 0.09 0.09 0.08 0.07 0.06 0.05 0.03 0.02 0.02 0.02 0.01 0.01 0.01 0.00 0.00 0.00 0.00 0.00 0.00 0.00 0.00 0.00 0.00 0.00 0.00 0.00 0.00 0.00 0.00 0.00 0.00 0.00 0.00 0.00
0.02 0.02 0.02 0.02 0.03 0.03 0.03 0.03 0.03 0.03 0.04 0.05 0.05 0.06 0.05 0.04 0.03 0.03 0.02 0.01 0.01 0.01 0.00 0.00 0.00 0.00 0.00 0.00 0.00 0.00 0.00 0.00 0.00 0.00 0.00 0.00 0.00 0.00 0.00 0.00 0.00 0.00 0.00
0.03 0.04 0.04 0.02 0.02 0.02 0.03 0.04 0.04 0.03 0.03 0.03 0.03 0.04 0.04 0.05 0.04 0.04 0.03 0.02 0.02 0.01 0.00 0.00 0.00 0.00 0.00 0.00 0.00 0.00 0.00 0.00 0.00 0.00 0.00 0.00 0.00 0.00 0.00 0.00 0.00 0.00 0.00
MSLP
1016.14 1016.25 1016.30 1016.32 1016.34 1016.39 1016.48 1016.60 1016.74 1016.88 1017.01 1017.12 1017.21 1017.29 1017.39 1017.50 1017.64 1017.81 1018.00 1018.20 1018.39 1018.58 1018.76 1018.93 1019.10 1019.28 1019.48 1019.69 1019.93 1020.17 1020.42 1020.67 1020.92 1021.17 1021.40 1021.64 1021.87 1022.09 1022.30 1022.47 1022.62 1022.74 1022.82
1016.19 1016.31 1016.36 1016.39 1016.43 1016.51 1016.62 1016.77 1016.95 1017.13 1017.30 1017.44 1017.56 1017.65 1017.73 1017.81 1017.89 1017.98 1018.09 1018.22 1018.36 1018.51 1018.68 1018.86 1019.06 1019.27 1019.49 1019.73 1019.97 1020.21 1020.46 1020.70 1020.95 1021.19 1021.45 1021.70 1021.94 1022.17 1022.38 1022.55 1022.69 1022.78 1022.86
1016.14 1016.27 1016.36 1016.44 1016.52 1016.64 1016.80 1016.99 1017.21 1017.43 1017.63 1017.81 1017.95 1018.05 1018.12 1018.16 1018.19 1018.21 1018.25 1018.31 1018.39 1018.51 1018.66 1018.84 1019.05 1019.29 1019.54 1019.79 1020.03 1020.27 1020.50 1020.73 1020.96 1021.19 1021.43 1021.68 1021.92 1022.15 1022.36 1022.53 1022.65 1022.75 1022.82
1016.01 1016.18 1016.33 1016.47 1016.62 1016.80 1017.00 1017.24 1017.48 1017.73 1017.96 1018.16 1018.32 1018.43 1018.50 1018.52 1018.51 1018.49 1018.47 1018.47 1018.51 1018.59 1018.71 1018.89 1019.11 1019.36 1019.62 1019.88 1020.12 1020.35 1020.56 1020.75 1020.95 1021.15 1021.36 1021.59 1021.81 1022.03 1022.23 1022.39 1022.52 1022.61 1022.68
1015.84 1016.07 1016.29 1016.50 1016.73 1016.97 1017.22 1017.48 1017.74 1018.00 1018.24 1018.45 1018.62 1018.74 1018.82 1018.85 1018.84 1018.80 1018.75 1018.71 1018.71 1018.76 1018.86 1019.02 1019.23 1019.48 1019.74 1019.99 1020.22 1020.42 1020.60 1020.76 1020.91 1021.07 1021.24 1021.43 1021.62 1021.82 1022.00 1022.15 1022.28 1022.38 1022.45
1015.67 1015.96 1016.25 1016.54 1016.84 1017.12 1017.41 1017.68 1017.94 1018.18 1018.41 1018.62 1018.81 1018.95 1019.06 1019.12 1019.13 1019.10 1019.05 1019.00 1018.97 1018.99 1019.07 1019.20 1019.39 1019.61 1019.86 1020.09 1020.30 1020.47 1020.62 1020.74 1020.85 1020.96 1021.09 1021.23 1021.39 1021.55 1021.71 1021.85 1021.97 1022.06 1022.14
1015.52 1015.86 1016.22 1016.58 1016.93 1017.25 1017.55 1017.81 1018.05 1018.27 1018.48 1018.69 1018.88 1019.06 1019.20 1019.31 1019.36 1019.37 1019.35 1019.30 1019.26 1019.26 1019.30 1019.39 1019.54 1019.73 1019.94 1020.15 1020.33 1020.48 1020.60 1020.69 1020.76 1020.83 1020.92 1021.03 1021.15 1021.28 1021.41 1021.53 1021.63 1021.71 1021.78
1015.40 1015.79 1016.19 1016.60 1016.99 1017.33 1017.63 1017.88 1018.08 1018.27 1018.46 1018.65 1018.86 1019.07 1019.26 1019.43 1019.54 1019.60 1019.61 1019.58 1019.54 1019.50 1019.50 1019.55 1019.65 1019.79 1019.96 1020.13 1020.29 1020.42 1020.52 1020.60 1020.65 1020.70 1020.76 1020.84 1020.92 1021.02 1021.12 1021.21 1021.29 1021.35 1021.40
1015.31 1015.72 1016.16 1016.60 1017.01 1017.37 1017.65 1017.88 1018.06 1018.22 1018.38 1018.57 1018.79 1019.03 1019.27 1019.49 1019.67 1019.78 1019.82 1019.80 1019.75 1019.69 1019.64 1019.63 1019.68 1019.77 1019.89 1020.03 1020.17 1020.29 1020.38 1020.46 1020.51 1020.56 1020.61 1020.67 1020.73 1020.80 1020.87 1020.93 1020.98 1021.01 1021.03
1015.22 1015.65 1016.10 1016.57 1016.99 1017.36 1017.64 1017.86 1018.02 1018.16 1018.31 1018.49 1018.72 1018.98 1019.26 1019.53 1019.74 1019.89 1019.96 1019.95 1019.88 1019.79 1019.69 1019.63 1019.62 1019.65 1019.73 1019.84 1019.96 1020.07 1020.18 1020.26 1020.33 1020.39 1020.44 1020.50 1020.55 1020.60 1020.64 1020.67 1020.68 1020.67 1020.66
1015.11 1015.55 1016.02 1016.50 1016.94 1017.32 1017.61 1017.83 1017.99 1018.12 1018.27 1018.45 1018.68 1018.96 1019.25 1019.54 1019.78 1019.95 1020.02 1020.01 1019.93 1019.80 1019.67 1019.56 1019.49 1019.48 1019.51 1019.59 1019.69 1019.80 1019.91 1020.01 1020.09 1020.17 1020.23 1020.29 1020.34 1020.38 1020.40 1020.39 1020.37 1020.33 1020.28
1014.96 1015.41 1015.91 1016.40 1016.87 1017.26 1017.58 1017.81 1017.98 1018.12 1018.27 1018.45 1018.68 1018.95 1019.24 1019.53 1019.77 1019.94 1020.01 1019.99 1019.90 1019.76 1019.60 1019.45 1019.34 1019.28 1019.28 1019.32 1019.39 1019.49 1019.59 1019.69 1019.79 1019.88 1019.96 1020.02 1020.07 1020.10 1020.10 1020.08 1020.03 1019.96 1019.87
1014.77 1015.25 1015.77 1016.29 1016.78 1017.20 1017.54 1017.80 1017.99 1018.15 1018.30 1018.48 1018.69 1018.95 1019.22 1019.49 1019.71 1019.87 1019.94 1019.92 1019.82 1019.68 1019.51 1019.34 1019.21 1019.12 1019.08 1019.08 1019.12 1019.18 1019.26 1019.35 1019.43 1019.52 1019.59 1019.66 1019.71 1019.73 1019.73 1019.69 1019.62 1019.53 1019.43
1014.55 1015.06 1015.61 1016.15 1016.67 1017.12 1017.50 1017.79 1018.00 1018.17 1018.33 1018.50 1018.69 1018.92 1019.16 1019.39 1019.59 1019.74 1019.81 1019.80 1019.72 1019.60 1019.44 1019.29 1019.14 1019.03 1018.96 1018.91 1018.90 1018.91 1018.94 1018.98 1019.03 1019.09 1019.16 1019.22 1019.26 1019.28 1019.28 1019.24 1019.16 1019.06 1018.94
1014.31 1014.86 1015.44 1016.01 1016.55 1017.03 1017.43 1017.74 1017.98 1018.16 1018.32 1018.47 1018.64 1018.83 1019.03 1019.23 1019.41 1019.55 1019.63 1019.65 1019.61 1019.53 1019.41 1019.29 1019.16 1019.04 1018.93 1018.84 1018.76 1018.70 1018.65 1018.63 1018.62 1018.64 1018.67 1018.71 1018.75 1018.77 1018.76 1018.73 1018.65 1018.55 1018.43
1014.07 1014.66 1015.26 1015.85 1016.40 1016.90 1017.31 1017.64 1017.89 1018.08 1018.23 1018.37 1018.51 1018.66 1018.83 1019.00 1019.17 1019.31 1019.41 1019.47 1019.49 1019.47 1019.42 1019.34 1019.24 1019.12 1018.98 1018.84 1018.69 1018.55 1018.42 1018.31 1018.23 1018.18 1018.17 1018.18 1018.21 1018.23 1018.23 1018.19 1018.13 1018.03 1017.90
1013.84 1014.45 1015.06 1015.66 1016.22 1016.71 1017.13 1017.47 1017.73 1017.92 1018.06 1018.18 1018.30 1018.43 1018.57 1018.72 1018.88 1019.03 1019.17 1019.28 1019.36 1019.41 1019.43 1019.40 1019.33 1019.22 1019.07 1018.88 1018.67 1018.45 1018.23 1018.03 1017.88 1017.77 1017.71 1017.69 1017.69 1017.70 1017.70 1017.67 1017.61 1017.51 1017.39
1013.60 1014.22 1014.84 1015.43 1015.98 1016.47 1016.88 1017.22 1017.47 1017.66 1017.81 1017.92 1018.03 1018.15 1018.27 1018.42 1018.58 1018.74 1018.91 1019.06 1019.20 1019.31 1019.38 1019.41 1019.38 1019.28 1019.12 1018.90 1018.64 1018.35 1018.07 1017.80 1017.58 1017.41 1017.30 1017.24 1017.22 1017.22 1017.21 1017.18 1017.12 1017.02 1016.89
1013.35 1013.97 1014.57 1015.15 1015.68 1016.16 1016.56 1016.89 1017.15 1017.35 1017.50 1017.62 1017.73 1017.85 1017.97 1018.11 1018.27 1018.44 1018.63 1018.81 1018.98 1019.13 1019.24 1019.30 1019.30 1019.22 1019.06 1018.84 1018.55 1018.23 1017.90 1017.59 1017.32 1017.11 1016.96 1016.87 1016.82 1016.79 1016.77 1016.73 1016.65 1016.54 1016.40
1013.08 1013.68 1014.26 1014.81 1015.32 1015.78 1016.18 1016.51 1016.77 1016.99 1017.16 1017.30 1017.43 1017.56 1017.69 1017.83 1017.98 1018.15 1018.32 1018.50 1018.68 1018.83 1018.96 1019.04 1019.05 1018.99 1018.85 1018.64 1018.36 1018.04 1017.71 1017.38 1017.09 1016.86 1016.68 1016.55 1016.47 1016.41 1016.36 1016.28 1016.18 1016.05 1015.89
1012.78 1013.35 1013.90 1014.43 1014.92 1015.35 1015.74 1016.07 1016.35 1016.59 1016.79 1016.97 1017.13 1017.28 1017.42 1017.56 1017.70 1017.84 1017.99 1018.14 1018.28 1018.41 1018.52 1018.60 1018.62 1018.58 1018.47 1018.29 1018.05 1017.77 1017.46 1017.15 1016.87 1016.63 1016.43 1016.27 1016.15 1016.05 1015.95 1015.83 1015.69 1015.52 1015.33
1012.46 1013.00 1013.52 1014.01 1014.47 1014.89 1015.27 1015.60 1015.90 1016.17 1016.41 1016.63 1016.82 1017.00 1017.16 1017.29 1017.41 1017.52 1017.61 1017.70 1017.79 1017.87 1017.94 1017.99 1018.01 1017.99 1017.92 1017.80 1017.62 1017.40 1017.15 1016.89 1016.63 1016.40 1016.18 1016.00 1015.83 1015.68 1015.52 1015.35 1015.16 1014.95 1014.73
1012.14 1012.64 1013.12 1013.58 1014.01 1014.41 1014.77 1015.10 1015.41 1015.71 1015.98 1016.24 1016.47 1016.68 1016.86 1016.99 1017.09 1017.15 1017.18 1017.20 1017.22 1017.23 1017.25 1017.28 1017.30 1017.30 1017.27 1017.21 1017.11 1016.97 1016.79 1016.59 1016.37 1016.15 1015.93 1015.71 1015.50 1015.28 1015.06 1014.83 1014.59 1014.34 1014.09
1011.84 1012.30 1012.74 1013.16 1013.55 1013.91 1014.25 1014.57 1014.88 1015.19 1015.49 1015.78 1016.05 1016.28 1016.47 1016.61 1016.69 1016.72 1016.70 1016.66 1016.61 1016.56 1016.53 1016.53 1016.54 1016.56 1016.58 1016.58 1016.56 1016.50 1016.40 1016.25 1016.08 1015.87 1015.64 1015.40 1015.14 1014.87 1014.58 1014.30 1014.01 1013.72 1013.44
1011.55 1011.98 1012.39 1012.76 1013.11 1013.42 1013.72 1014.00 1014.29 1014.59 1014.90 1015.21 1015.51 1015.77 1015.99 1016.14 1016.22 1016.23 1016.18 1016.10 1016.00 1015.91 1015.85 1015.82 1015.83 1015.87 1015.93 1015.99 1016.03 1016.04 1016.00 1015.91 1015.76 1015.57 1015.34 1015.07 1014.77 1014.45 1014.12 1013.79 1013.46 1013.14 1012.84
1011.29 1011.69 1012.06 1012.39 1012.68 1012.93 1013.17 1013.41 1013.66 1013.93 1014.23 1014.55 1014.86 1015.15 1015.39 1015.57 1015.67 1015.69 1015.65 1015.56 1015.45 1015.34 1015.26 1015.22 1015.24 1015.29 1015.38 1015.48 1015.56 1015.62 1015.62 1015.57 1015.44 1015.26 1015.02 1014.73 1014.41 1014.06 1013.70 1013.34 1012.98 1012.64 1012.32
Thickness
5740 5739 5738 5738 5737 5737 5736 5735 5734 5733 5733 5732 5731 5730 5728 5727 5726 5724 5723 5722 5720 5720 5719 5717 5716 5714 5713 5711 5710 5708 5707 5705 5704 5703 5702 5701 5700 5700 5699 5698 5698 5697 5696
5739 5738 5737 5736 5736 5735 5734 5734 5733 5732 5731 5730 5729 5728 5727 5725 5724 5723 5722 5720 5719 5718 5717 5716 5714 5713 5712 5710 5709 5707 5706 5704 5703 5702 5701 5700 5699 5698 5697 5696 5696 5695 5694
5738 5736 5735 5734 5734 5733 5733 5732 5731 5730 5729 5728 5727 5726 5725 5724 5723 5721 5720 5719 5718 5717 5716 5715 5713 5712 5711 5709 5708 5706 5705 5703 5702 5701 5700 5699 5698 5697 5696 5695 5694 5693 5692
5737 5735 5734 5734 5733 5732 5731 5730 5729 5727 5727 5726 5725 5724 5723 5722 5721 5720 5719 5718 5717 5716 5715 5714 5712 5711 5710 5708 5707 5705 5704 5703 5701 5700 5699 5698 5697 5696 5695 5694 5693 5692 5691
5735 5734 5733 5733 5732 5731 5730 5729 5727 5726 5724 5723 5722 5722 5721 5720 5720 5720 5718 5717 5717 5716 5714 5713 5712 5711 5709 5708 5707 5705 5704 5703 5701 5700 5699 5697 5696 5695 5694 5693 5692 5691 5690
5735 5734 5732 5732 5731 5730 5729 5728 5726 5725 5723 5722 5722 5719 5719 5719 5719 5718 5718 5717 5716 5715 5714 5713 5712 5710 5709 5708 5707 5706 5704 5703 5702 5700 5699 5697 5696 5695 5694 5693 5692 5691 5690
5734 5733 5732 5731 5730 5729 5728 5727 5725 5723 5720 5720 5718 5715 5716 5717 5717 5717 5717 5717 5716 5715 5714 5713 5711 5710 5709 5708 5707 5706 5705 5704 5703 5701 5700 5698 5697 5695 5694 5693 5692 5691 5689
5734 5732 5732 5731 5729 5728 5727 5726 5725 5721 5720 5720 5716 5712 5708 5710 5714 5717 5716 5716 5715 5715 5714 5713 5712 5711 5710 5709 5708 5707 5706 5705 5703 5702 5700 5699 5698 5696 5695 5693 5692 5691 5690
5733 5732 5731 5730 5729 5728 5726 5725 5724 5722 5719 5718 5718 5714 5708 5705 5708 5712 5714 5714 5714 5714 5714 5713 5712 5711 5710 5709 5708 5707 5706 5705 5704 5703 5701 5700 5698 5697 5696 5694 5693 5691 5690
5732 5731 5730 5729 5728 5727 5726 5725 5725 5724 5721 5717 5717 5717 5715 5714 5708 5707 5710 5712 5713 5713 5713 5713 5712 5712 5711 5710 5709 5708 5707 5706 5705 5703 5702 5700 5699 5697 5696 5695 5693 5692 5691
5730 5730 5729 5728 5727 5727 5726 5725 5724 5724 5723 5720 5718 5716 5714 5713 5712 5708 5705 5708 5710 5712 5712 5712 5712 5711 5710 5710 5709 5708 5707 5706 5705 5703 5701 5700 5699 5697 5696 5695 5694 5692 5691
5728 5728 5728 5727 5727 5726 5725 5725 5724 5724 5723 5722 5720 5719 5717 5714 5712 5710 5707 5706 5707 5709 5711 5712 5712 5711 5710 5710 5709 5708 5707 5705 5704 5702 5701 5700 5698 5697 5696 5695 5693 5692 5691
5726 5727 5727 5726 5726 5725 5725 5724 5724 5723 5723 5722 5721 5720 5720 5719 5717 5713 5710 5706 5705 5707 5709 5711 5712 5711 5711 5710 5709 5708 5706 5705 5704 5702 5701 5699 5698 5697 5695 5694 5693 5692 5691
5728 5727 5726 5726 5725 5725 5724 5724 5723 5723 5722 5722 5722 5721 5720 5719 5718 5717 5714 5709 5704 5704 5706 5709 5711 5711 5711 5710 5709 5707 5706 5705 5703 5702 5700 5699 5697 5696 5695 5694 5692 5691 5690
5727 5726 5725 5724 5724 5723 5723 5722 5722 5721 5721 5721 5721 5720 5719 5719 5718 5718 5716 5715 5709 5703 5703 5707 5709 5711 5710 5709 5708 5707 5706 5704 5703 5701 5699 5698 5697 5695 5694 5693 5691 5690 5689
5726 5724 5724 5723 5722 5722 5722 5721 5720 5720 5719 5719 5719 5718 5718 5718 5717 5716 5715 5714 5713 5709 5705 5708 5708 5709 5709 5709 5708 5706 5705 5703 5702 5700 5699 5697 5696 5694 5693 5692 5690 5689 5688
5725 5724 5723 5722 5721 5720 5720 5719 5719 5718 5718 5717 5717 5717 5716 5716 5715 5715 5714 5713 5711 5710 5706 5707 5707 5707 5707 5707 5706 5704 5703 5702 5701 5700 5698 5697 5695 5694 5692 5691 5689 5688 5687
5724 5723 5721 5720 5719 5719 5718 5718 5717 5717 5716 5715 5715 5715 5714 5714 5713 5713 5712 5711 5710 5709 5707 5705 5705 5705 5705 5704 5703 5702 5701 5700 5699 5698 5697 5696 5695 5693 5691 5689 5688 5686 5685
5723 5721 5720 5719 5718 5718 5717 5716 5716 5715 5715 5715 5714 5714 5713 5712 5711 5710 5710 5709 5709 5708 5706 5704 5703 5702 5701 5700 5699 5699 5698 5697 5697 5696 5695 5694 5693 5691 5689 5687 5686 5684 5683
5722 5721 5720 5719 5718 5717 5716 5715 5714 5714 5713 5713 5713 5713 5712 5712 5711 5709 5708 5708 5706 5705 5703 5701 5699 5698 5697 5696 5695 5694 5693 5693 5692 5693 5692 5691 5690 5688 5686 5684 5683 5681 5680
5722 5721 5719 5718 5717 5716 5715 5714 5713 5712 5711 5711 5711 5711 5711 5711 5710 5709 5708 5706 5705 5702 5700 5698 5696 5694 5693 5692 5691 5690 5688 5688 5687 5687 5687 5686 5685 5684 5682 5680 5679 5677 5676
5720 5719 5718 5716 5715 5715 5715 5713 5713 5712 5711 5709 5708 5708 5709 5709 5708 5707 5707 5706 5704 5701 5698 5695 5693 5691 5690 5690 5688 5685 5683 5681 5681 5683 5680 5681 5680 5679 5677 5676 5675 5673 5671
5718 5717 5716 5715 5714 5714 5714 5713 5711 5710 5709 5708 5707 5706 5706 5707 5706 5705 5704 5703 5701 5700 5698 5696 5693 5690 5689 5687 5684 5681 5678 5677 5676 5677 5674 5675 5674 5673 5673 5672 5670 5668 5666
5718 5717 5715 5714 5713 5713 5712 5711 5709 5708 5707 5707 5706 5705 5704 5704 5703 5702 5700 5698 5697 5696 5694 5692 5691 5690 5688 5685 5681 5679 5676 5672 5671 5669 5666 5666 5669 5668 5668 5666 5664 5662 5659
5717 5716 5715 5713 5711 5711 5710 5708 5706 5704 5703 5703 5704 5703 5702 5701 5700 5698 5695 5693 5692 5691 5690 5688 5686 5684 5682 5679 5675 5672 5668 5665 5665 5665 5660 5658 5661 5660 5661 5661 5659 5656 5653
5717 5715 5713 5712 5711 5710 5709 5706 5703 5702 5700 5700 5700 5699 5699 5697 5696 5693 5691 5689 5686 5686 5684 5682 5679 5677 5675 5672 5669 5666 5664 5660 5658 5657 5656 5651 5652 5650 5652 5654 5651 5648 5644